Temp
61 59 59 61 49 46 43 48 53 52 57 63 65 64 63 67 64 59 68 71 72 73 75 76 75 76 76 75 75 75 75 76 76 76 76 76 75 76 76 76 76 76 77 77 77 77 75 74 74
58 62 59 53 43 37 43 50 50 56 61 61 63 65 63 63 69 71 68 71 73 74 76 76 73 75 75 75 75 75 75 76 76 76 76 76 76 76 76 76 75 76 77 77 77 76 75 74 73
61 60 53 47 42 41 42 49 55 58 61 60 60 66 66 65 69 69 70 72 73 75 76 76 73 75 75 74 75 75 75 76 76 76 76 75 76 76 76 75 76 76 76 76 76 75 74 74 73
55 55 51 42 39 43 47 51 53 54 59 60 62 59 66 70 67 69 73 72 72 74 75 73 73 74 74 74 75 75 75 76 76 76 75 75 76 75 75 75 75 75 76 76 76 75 74 73 73
51 49 40 37 38 44 50 52 53 52 54 58 58 56 60 64 68 69 69 71 72 73 74 73 72 74 74 74 74 75 75 75 75 75 75 75 75 75 75 75 75 75 75 76 75 74 73 73 73
45 45 35 32 38 45 49 52 52 53 54 57 57 54 60 63 65 66 69 70 73 73 73 73 69 71 72 73 74 74 74 74 74 74 75 74 75 74 75 75 74 75 75 75 74 74 73 72 72
42 38 33 32 34 39 47 50 47 48 49 52 56 51 59 61 63 65 68 70 73 74 71 72 73 71 68 70 71 72 73 73 73 74 74 73 73 73 73 74 75 75 74 74 74 72 72 72 71
41 39 32 33 34 37 44 47 50 49 48 56 58 50 51 60 62 65 68 70 70 70 70 71 71 71 71 71 67 67 70 71 71 71 70 69 69 70 70 69 73 73 74 73 72 71 71 71 71
44 33 28 32 35 39 44 42 48 52 50 51 55 54 58 61 62 63 57 64 68 68 69 71 70 70 72 71 68 65 66 67 67 68 66 66 72 71 69 69 69 71 72 72 71 70 70 68 67
39 30 31 38 40 40 42 42 45 45 46 47 50 55 58 59 58 59 57 55 56 64 67 70 69 69 71 71 69 71 71 72 73 72 71 72 70 70 69 67 65 68 68 69 70 69 67 65 71
39 31 36 40 43 43 41 41 45 42 41 47 48 51 55 55 56 57 58 58 58 60 63 68 69 70 69 68 68 69 70 70 70 70 70 69 68 68 68 68 66 71 64 71 70 70 69 68 69
33 38 39 41 42 40 38 42 39 41 44 49 50 52 52 52 54 55 57 58 59 60 60 64 68 68 68 68 67 69 68 68 69 69 69 67 66 66 65 66 67 68 68 67 68 68 66 66 66
34 37 40 41 40 39 41 38 39 40 46 48 49 50 50 52 54 55 57 60 59 59 62 60 66 68 68 67 68 68 68 68 69 69 68 68 66 65 65 64 65 65 65 67 65 66 65 65 65
37 37 37 39 39 40 37 38 38 42 45 44 45 47 48 50 53 55 57 58 60 60 61 62 61 68 68 66 68 67 68 68 69 69 67 67 67 65 64 64 64 63 65 66 66 65 64 64 64
37 31 35 37 39 37 39 32 32 41 43 42 44 46 46 49 52 53 55 56 60 61 61 63 61 66 67 67 67 68 67 67 68 68 67 67 66 66 65 63 62 63 64 64 63 63 63 63 62
32 31 25 35 36 37 36 27 39 42 40 40 41 42 43 47 50 53 55 56 60 60 60 64 64 63 66 66 65 66 66 67 68 68 66 66 65 65 61 62 62 63 63 63 62 61 61 61 61
29 23 25 30 38 37 34 30 38 42 40 39 41 43 45 46 48 51 53 55 58 60 61 63 63 64 64 64 65 65 66 67 67 66 65 65 64 64 63 62 62 62 62 61 61 59 60 59 59
23 24 27 26 33 35 31 31 38 40 41 40 42 44 45 43 47 52 53 55 57 59 62 64 64 64 63 63 62 62 62 64 66 66 66 65 64 63 62 62 61 61 61 60 60 59 58 59 59
29 25 24 29 35 32 30 30 34 39 39 39 41 42 43 41 48 51 52 53 54 58 60 63 63 63 63 61 60 60 60 61 63 64 64 65 64 63 62 61 61 61 61 60 60 59 56 55 56
29 24 24 31 34 32 30 29 35 37 38 40 40 41 42 42 45 49 51 51 52 56 61 62 62 62 63 62 61 62 61 61 63 63 63 64 64 63 62 62 60 61 60 59 59 57 54 55 54
27 25 26 26 31 33 29 25 29 35 37 39 42 43 43 42 43 47 49 50 50 53 59 62 62 62 63 63 62 61 61 60 59 60 61 62 63 63 63 62 61 60 61 60 59 59 57 53 51
18 32 30 28 24 19 31 16 28 29 30 32 33 36 37 41 44 47 49 49 50 52 58 62 62 61 62 63 62 61 59 59 60 61 61 62 63 63 63 62 62 60 60 59 59 58 59 56 52
20 30 28 27 23 23 26 19 25 28 24 26 28 31 34 36 40 45 47 49 52 53 57 61 61 60 61 62 63 62 60 61 60 60 60 60 60 62 62 62 61 60 59 59 57 57 57 57 57
32 25 27 27 24 15 25 22 18 18 20 23 26 28 31 34 37 42 46 49 50 52 57 59 60 58 61 60 60 61 60 59 58 57 57 57 58 58 60 60 60 61 60 58 58 57 56 56 56
25 19 7 9 12 13 25 22 18 21 22 23 22 25 30 34 35 39 44 47 48 53 56 58 58 57 58 60 60 59 59 58 57 56 57 56 56 55 57 56 55 55 54 53 53 52 51 51 50
22 20 12 3 10 13 26 16 19 25 27 24 25 35 33 34 37 40 44 45 47 50 55 57 54 49 50 48 47 47 46 47 48 49 50 48 47 45 47 47 46 46 47 47 46 44 43 42 41
20 15 21 13 17 13 19 19 29 24 20 20 20 35 34 37 39 41 45 47 48 50 54 50 48 46 46 46 45 44 43 42 41 42 42 41 42 42 42 42 41 41 41 41 41 40 39 39 38
25 26 12 16 5 5 14 9 7 11 13 15 18 34 37 39 40 40 40 41 43 44 45 45 45 43 43 43 43 42 40 40 39 38 37 38 39 40 39 39 39 40 40 40 39 38 37 35 35
19 16 18 15 16 7 5 6 14 12 12 12 20 32 33 35 36 37 38 39 40 41 40 40 40 39 39 39 39 38 37 37 37 35 34 34 34 36 35 36 36 36 36 37 36 36 35 33 33
25 16 15 1 5 9 11 8 17 14 13 16 19 29 32 33 34 35 36 37 37 37 37 37 38 37 37 37 36 35 35 35 34 33 33 34 33 34 34 35 35 35 35 35 34 33 32 30 28
MSLP
1013.82 1013.49 1013.24 1013.32 1014.32 1013.89 1012.52 1011.86 1011.23 1010.89 1010.36 1009.41 1008.85 1008.65 1008.42 1008.11 1007.78 1007.34 1006.82 1006.85 1006.84 1007.17 1007.21 1007.87 1008.51 1009.02 1009.78 1010.23 1010.49 1011.11 1011.74 1011.97 1012.40 1012.98 1013.35 1014.00 1014.47 1014.91 1015.23 1015.48 1015.78 1015.85 1016.14 1016.25 1016.44 1016.69 1017.11 1017.47 1017.80
1014.03 1013.63 1013.60 1013.80 1014.19 1013.79 1012.20 1011.62 1010.99 1010.54 1009.66 1009.42 1009.08 1008.42 1008.36 1008.02 1007.57 1007.04 1006.94 1007.15 1006.92 1007.13 1007.39 1007.75 1008.43 1008.83 1009.44 1010.22 1010.66 1011.10 1011.66 1012.01 1012.42 1012.88 1013.40 1013.92 1014.53 1014.81 1015.24 1015.49 1015.73 1015.91 1016.13 1016.55 1016.71 1017.01 1017.31 1017.65 1017.92
1013.93 1014.05 1014.09 1014.26 1013.83 1012.04 1011.73 1011.22 1010.82 1010.36 1010.00 1009.87 1009.59 1008.79 1008.35 1007.86 1007.55 1007.31 1007.21 1007.40 1007.55 1007.15 1007.30 1007.91 1008.41 1008.90 1009.39 1009.94 1010.61 1011.18 1011.57 1012.14 1012.39 1012.82 1013.37 1014.03 1014.54 1014.87 1015.26 1015.80 1016.01 1016.16 1016.35 1016.55 1016.95 1017.36 1017.62 1017.78 1018.05
1014.44 1014.47 1015.04 1014.66 1012.98 1012.53 1011.82 1011.39 1011.27 1010.95 1010.11 1009.93 1009.78 1009.32 1008.60 1008.03 1008.30 1008.11 1007.54 1007.34 1007.50 1007.61 1007.57 1008.07 1008.60 1008.97 1009.39 1009.79 1010.31 1010.99 1011.45 1012.06 1012.46 1012.82 1013.40 1014.10 1014.49 1014.95 1015.32 1015.82 1016.17 1016.27 1016.68 1016.75 1017.15 1017.50 1017.84 1017.99 1018.17
1015.07 1015.42 1015.67 1015.06 1013.90 1013.00 1012.28 1011.90 1011.62 1011.41 1011.08 1010.47 1010.45 1009.81 1009.24 1009.07 1008.98 1008.29 1007.80 1007.45 1007.40 1007.63 1007.79 1008.33 1008.75 1009.06 1009.52 1009.78 1010.25 1010.87 1011.24 1011.78 1012.36 1012.81 1013.25 1013.98 1014.52 1014.96 1015.43 1015.71 1016.27 1016.41 1016.58 1017.05 1017.29 1017.63 1017.84 1018.10 1018.31
1016.06 1016.28 1016.50 1015.67 1014.38 1013.53 1012.77 1012.37 1012.02 1011.77 1011.37 1010.89 1010.69 1010.58 1009.49 1009.18 1008.83 1008.66 1008.06 1007.83 1007.57 1007.86 1007.94 1008.31 1008.86 1009.16 1009.51 1009.99 1010.26 1010.81 1011.19 1011.62 1012.12 1012.77 1013.06 1013.81 1014.45 1015.05 1015.41 1015.78 1016.20 1016.39 1016.61 1016.93 1017.54 1017.70 1018.00 1018.21 1018.41
1016.58 1017.04 1016.56 1015.83 1015.08 1014.41 1013.56 1012.97 1012.78 1012.58 1012.12 1011.61 1011.39 1010.83 1009.75 1009.23 1009.35 1008.89 1008.11 1007.84 1007.82 1007.80 1008.37 1008.51 1008.87 1009.21 1009.56 1010.05 1010.43 1010.82 1011.13 1011.71 1011.98 1012.59 1012.95 1013.50 1014.34 1014.96 1015.32 1015.75 1016.10 1016.23 1016.70 1016.84 1017.38 1017.96 1017.99 1018.36 1018.46
1017.07 1017.35 1017.07 1016.14 1015.40 1014.46 1014.01 1013.57 1013.32 1013.09 1012.51 1011.93 1011.46 1010.96 1010.64 1010.15 1009.62 1009.13 1008.23 1007.84 1007.96 1007.95 1008.24 1008.63 1008.56 1009.14 1009.42 1009.90 1010.35 1010.84 1011.25 1011.68 1012.09 1012.44 1013.08 1013.44 1014.11 1014.90 1015.25 1015.73 1016.01 1016.43 1016.70 1016.92 1017.31 1017.76 1018.04 1018.27 1018.43
1017.21 1017.69 1017.16 1016.27 1015.81 1014.83 1014.55 1014.41 1013.80 1013.47 1013.11 1012.50 1011.83 1011.50 1011.05 1010.54 1010.03 1009.41 1009.04 1008.50 1008.07 1008.19 1008.14 1008.39 1008.77 1008.95 1009.20 1009.81 1010.23 1010.86 1011.44 1011.95 1012.25 1012.47 1013.06 1013.61 1013.99 1014.83 1015.30 1015.60 1016.01 1016.30 1016.56 1017.00 1017.33 1017.63 1017.98 1018.15 1018.45
1017.38 1017.69 1016.81 1016.01 1015.64 1015.30 1015.02 1014.86 1014.57 1014.11 1013.49 1012.75 1011.92 1011.20 1010.81 1010.47 1010.27 1009.99 1009.69 1009.55 1009.36 1008.54 1008.36 1008.29 1008.69 1008.88 1008.98 1009.59 1010.26 1010.66 1011.27 1011.86 1012.39 1012.58 1013.00 1013.52 1013.89 1014.64 1015.32 1015.67 1016.01 1016.30 1016.47 1016.94 1017.32 1017.66 1018.03 1018.30 1018.53
1016.99 1016.80 1016.40 1015.92 1015.67 1015.50 1015.37 1015.03 1014.61 1014.06 1012.97 1012.49 1011.95 1011.27 1011.02 1010.90 1010.16 1010.18 1009.82 1009.55 1009.86 1009.17 1008.89 1008.24 1008.40 1008.67 1008.90 1009.29 1009.90 1010.56 1011.06 1011.66 1012.17 1012.64 1012.93 1013.42 1013.92 1014.61 1015.36 1015.77 1016.20 1016.28 1016.65 1016.69 1017.20 1017.64 1018.00 1018.29 1018.55
1017.28 1016.58 1016.43 1016.04 1015.58 1015.57 1015.44 1014.80 1014.44 1013.92 1011.87 1012.56 1012.18 1011.66 1011.30 1011.16 1010.44 1010.05 1009.72 1009.41 1009.16 1009.25 1008.91 1008.49 1008.08 1008.25 1008.49 1008.99 1009.53 1010.10 1010.88 1011.35 1011.91 1012.34 1012.91 1013.19 1013.83 1014.55 1015.23 1015.69 1016.20 1016.39 1016.68 1016.88 1017.15 1017.55 1018.07 1018.36 1018.66
1017.02 1016.39 1016.27 1015.93 1015.76 1015.40 1015.14 1014.39 1014.37 1011.88 1012.81 1012.49 1011.90 1011.52 1011.11 1010.95 1010.21 1009.67 1009.42 1009.09 1008.87 1008.78 1008.47 1008.19 1007.96 1007.56 1008.09 1008.47 1008.99 1009.63 1010.36 1010.77 1011.29 1012.04 1012.56 1013.04 1013.63 1014.42 1015.13 1015.65 1016.13 1016.51 1016.81 1017.01 1017.35 1017.66 1018.08 1018.40 1018.69
1016.43 1016.47 1016.30 1015.84 1015.15 1015.00 1014.67 1012.77 1013.91 1011.54 1011.96 1011.53 1011.49 1010.93 1010.74 1010.51 1009.96 1009.12 1008.94 1008.68 1008.36 1008.19 1007.80 1007.96 1007.74 1006.74 1007.18 1007.76 1008.47 1009.02 1009.75 1010.33 1010.94 1011.51 1012.27 1012.79 1013.37 1014.20 1014.91 1015.59 1015.98 1016.52 1016.74 1016.99 1017.36 1017.61 1017.99 1018.38 1018.66
1016.75 1016.60 1016.01 1015.37 1014.42 1014.72 1013.96 1012.52 1012.77 1011.39 1011.42 1011.16 1010.75 1010.32 1010.29 1009.88 1009.67 1008.98 1008.45 1008.33 1008.04 1007.72 1007.23 1007.21 1007.02 1006.89 1006.67 1007.31 1007.86 1008.52 1009.52 1009.99 1010.65 1011.29 1012.13 1012.62 1013.10 1013.93 1014.69 1015.40 1015.97 1016.37 1016.79 1017.06 1017.35 1017.72 1017.99 1018.44 1018.81
1016.82 1016.56 1015.71 1014.55 1014.14 1014.14 1014.09 1011.59 1011.81 1011.43 1011.21 1010.66 1010.29 1010.08 1009.99 1009.43 1009.14 1008.62 1008.26 1007.92 1007.48 1007.31 1006.89 1006.10 1006.86 1005.69 1006.25 1006.65 1007.46 1008.10 1009.37 1009.70 1010.26 1010.95 1011.82 1012.41 1012.93 1013.66 1014.55 1015.27 1015.68 1016.02 1016.62 1016.97 1017.34 1017.67 1017.99 1018.25 1018.72
1016.62 1016.07 1015.43 1014.31 1013.43 1013.55 1013.58 1011.52 1011.21 1010.78 1010.66 1010.19 1009.93 1009.54 1009.41 1008.98 1008.55 1008.22 1007.72 1007.51 1006.96 1006.70 1006.20 1005.61 1005.28 1005.71 1005.76 1006.24 1006.90 1007.82 1008.45 1009.30 1009.88 1010.82 1011.51 1012.22 1012.72 1013.33 1014.04 1014.89 1015.22 1015.77 1016.27 1016.72 1017.23 1017.68 1017.92 1018.23 1018.58
1016.30 1015.87 1015.08 1014.07 1013.11 1013.13 1012.46 1011.24 1010.51 1010.11 1009.79 1009.23 1009.09 1008.98 1008.88 1008.67 1008.17 1007.49 1007.10 1006.92 1006.55 1006.08 1005.68 1005.46 1005.34 1005.20 1005.08 1005.81 1006.58 1007.41 1008.69 1009.49 1009.93 1010.32 1011.00 1011.80 1012.19 1012.93 1013.67 1014.51 1014.88 1015.40 1015.98 1016.50 1016.93 1017.42 1017.87 1018.13 1018.33
1016.06 1015.60 1014.47 1012.81 1012.66 1012.45 1011.46 1010.56 1009.28 1008.95 1008.90 1008.66 1008.40 1008.31 1008.21 1007.94 1007.50 1007.23 1006.73 1006.44 1006.21 1005.60 1005.17 1005.07 1005.20 1004.97 1005.09 1006.05 1006.18 1007.36 1008.40 1009.00 1009.84 1010.41 1010.72 1011.36 1011.80 1012.37 1013.10 1013.90 1014.55 1014.76 1015.29 1015.84 1016.48 1017.07 1017.51 1018.01 1018.36
1015.71 1015.00 1013.57 1012.48 1011.78 1011.97 1010.88 1009.30 1008.74 1008.26 1007.93 1007.63 1007.87 1007.88 1007.87 1007.94 1007.35 1006.61 1006.25 1006.15 1006.00 1005.32 1004.70 1004.74 1004.79 1005.10 1005.06 1005.77 1006.56 1007.07 1007.66 1008.25 1009.42 1010.08 1010.52 1010.80 1011.43 1011.90 1012.48 1013.29 1013.80 1014.28 1014.86 1015.36 1015.78 1016.33 1016.95 1017.42 1017.91
1015.08 1014.49 1013.30 1012.31 1011.59 1011.19 1010.62 1009.38 1008.72 1008.10 1008.03 1007.72 1008.09 1008.16 1007.90 1007.62 1007.34 1006.66 1005.88 1005.77 1005.72 1005.14 1004.50 1004.26 1003.78 1003.94 1005.02 1005.28 1006.49 1007.52 1008.10 1008.66 1009.17 1009.98 1010.35 1010.59 1010.74 1011.13 1011.76 1012.56 1013.24 1013.67 1014.19 1014.63 1014.95 1015.41 1016.00 1016.59 1017.29
1015.27 1013.37 1013.06 1012.34 1012.07 1011.13 1010.93 1010.56 1009.55 1009.71 1009.56 1009.67 1009.85 1009.34 1008.72 1007.93 1007.00 1006.45 1006.10 1005.69 1005.39 1005.03 1004.57 1003.89 1004.07 1004.40 1004.82 1004.94 1005.87 1006.36 1007.31 1007.90 1008.58 1009.28 1009.65 1009.99 1010.22 1010.67 1011.21 1011.79 1012.43 1013.01 1013.80 1014.11 1014.51 1015.01 1015.14 1015.73 1016.34
1015.11 1013.87 1012.78 1012.01 1011.55 1011.41 1010.73 1011.62 1010.65 1010.89 1010.94 1011.02 1010.51 1009.92 1009.23 1008.40 1007.39 1006.14 1005.83 1005.80 1005.08 1004.86 1004.36 1004.40 1004.06 1004.68 1005.15 1005.47 1005.69 1005.87 1006.94 1007.48 1008.19 1009.08 1009.58 1009.87 1010.03 1010.30 1010.88 1011.60 1012.25 1012.58 1012.90 1013.42 1013.93 1014.44 1014.87 1014.99 1015.31
1015.42 1013.94 1011.85 1011.17 1011.31 1011.39 1010.77 1011.46 1012.50 1013.53 1014.04 1012.24 1011.64 1010.35 1009.41 1008.37 1007.22 1006.22 1005.71 1005.52 1005.25 1004.96 1004.41 1004.34 1004.45 1005.57 1005.08 1005.14 1005.53 1005.70 1006.50 1007.52 1008.07 1008.85 1009.53 1009.96 1010.15 1010.49 1010.95 1011.39 1012.04 1012.55 1012.70 1013.21 1013.52 1014.11 1014.35 1014.65 1014.92
1015.67 1014.94 1013.91 1012.86 1012.20 1011.82 1011.49 1012.05 1013.79 1014.67 1014.60 1014.40 1012.30 1009.84 1008.43 1007.87 1007.13 1006.24 1005.64 1005.38 1005.54 1005.11 1004.75 1004.97 1005.78 1006.23 1005.70 1005.87 1006.36 1006.77 1006.99 1008.00 1008.18 1008.73 1009.54 1010.09 1010.51 1010.91 1011.43 1012.08 1012.52 1012.88 1013.20 1013.65 1014.04 1014.46 1014.85 1015.06 1015.21
1017.02 1016.97 1016.71 1016.01 1014.21 1013.14 1012.17 1013.53 1014.13 1015.08 1015.31 1014.69 1011.73 1007.79 1007.57 1007.72 1007.28 1006.58 1006.01 1005.98 1005.78 1005.37 1005.22 1005.26 1006.75 1007.40 1007.58 1007.96 1007.74 1009.69 1009.75 1010.27 1010.19 1010.19 1010.43 1011.52 1011.94 1012.15 1012.25 1012.97 1013.62 1013.96 1013.90 1014.28 1014.56 1015.21 1015.78 1016.19 1016.61
1017.93 1017.68 1018.18 1017.42 1015.81 1015.11 1014.38 1015.26 1014.56 1015.95 1014.47 1013.48 1012.34 1008.79 1007.78 1007.73 1007.16 1006.98 1006.72 1006.60 1006.47 1006.11 1006.09 1006.60 1007.48 1008.77 1008.71 1010.01 1009.94 1011.16 1011.05 1012.09 1012.59 1012.59 1013.29 1013.30 1014.01 1013.35 1014.16 1013.76 1014.72 1015.27 1015.34 1015.63 1015.65 1016.85 1017.27 1017.59 1018.41
1019.20 1019.29 1018.88 1018.31 1017.72 1016.81 1016.90 1018.75 1020.62 1019.37 1018.67 1016.54 1013.88 1011.13 1009.71 1008.89 1008.62 1008.36 1008.20 1008.22 1008.12 1008.30 1008.45 1008.60 1009.66 1010.20 1011.12 1011.59 1011.64 1012.44 1012.87 1013.31 1014.72 1014.59 1015.10 1014.65 1015.72 1015.69 1014.89 1015.25 1015.72 1016.99 1017.25 1016.69 1017.72 1018.29 1018.87 1018.98 1020.01
1019.71 1020.26 1020.27 1020.26 1019.61 1019.64 1020.10 1022.01 1023.43 1023.09 1022.02 1019.82 1016.52 1013.81 1012.22 1011.26 1010.63 1010.30 1010.03 1010.11 1010.26 1010.39 1010.38 1010.52 1011.15 1011.86 1012.50 1013.30 1013.95 1013.94 1014.42 1015.23 1016.19 1015.72 1016.23 1016.77 1016.55 1017.36 1016.56 1017.79 1018.67 1018.62 1018.49 1019.02 1019.25 1019.86 1020.52 1020.62 1021.35
1022.08 1022.32 1021.92 1022.01 1022.11 1022.13 1022.31 1023.64 1024.18 1024.43 1023.60 1021.80 1018.91 1016.16 1014.73 1013.76 1012.94 1012.45 1012.10 1011.97 1011.74 1012.21 1012.37 1012.64 1013.67 1013.55 1015.03 1015.49 1015.65 1015.82 1015.72 1017.73 1018.19 1018.23 1018.51 1018.75 1018.56 1019.27 1019.17 1019.56 1019.72 1020.38 1020.42 1020.92 1021.06 1021.89 1022.65 1022.78 1023.20
Wind_Speed
9 7 1 3 1 3 5 7 1 3 2 2 2 4 5 8 4 5 3 13 4 15 19 22 26 25 23 22 23 23 21 23 23 22 22 21 21 20 19 17 15 15 16 16 17 16 15 15 14
4 3 3 3 4 7 8 7 9 10 5 4 5 3 2 5 3 8 5 7 9 16 18 20 25 25 24 23 22 23 23 22 22 21 21 22 21 20 19 18 17 16 18 17 16 16 15 15 14
5 3 3 4 6 16 7 5 15 8 7 3 6 2 3 3 2 3 3 5 7 17 17 17 24 25 24 24 22 22 23 22 22 21 22 21 21 19 18 16 17 15 17 17 16 15 15 14 13
3 3 3 3 16 4 2 2 2 4 3 2 3 9 5 4 8 10 10 8 11 15 14 16 22 24 24 24 24 23 22 22 21 22 23 21 20 18 17 17 15 15 14 17 16 15 14 13 12
4 2 2 5 5 3 3 3 1 4 4 4 2 6 7 4 12 15 8 7 13 13 12 13 21 23 24 24 23 23 24 22 22 21 22 20 19 18 18 17 15 14 14 14 15 15 14 13 11
3 2 1 6 6 1 3 4 3 2 3 4 3 7 5 2 20 18 10 4 11 12 10 13 15 19 23 23 23 23 23 23 23 21 23 21 18 17 19 18 15 15 14 15 14 15 13 11 10
4 3 4 4 3 3 2 6 4 4 4 2 10 4 6 5 17 16 9 5 9 10 7 11 13 15 17 19 18 20 22 21 22 22 22 23 19 18 17 18 17 17 15 14 14 12 12 10 10
4 3 3 5 3 6 2 3 1 3 4 8 1 2 6 12 18 12 11 7 6 7 8 13 13 12 14 14 14 14 18 17 17 17 17 16 16 15 13 14 16 13 14 13 14 13 11 9 11
2 1 5 5 4 5 2 5 4 2 5 3 4 8 8 11 11 11 9 7 5 6 9 9 10 12 13 13 12 11 11 11 13 12 14 13 11 12 10 10 12 13 12 12 12 12 11 10 10
3 3 8 6 3 4 4 3 2 5 9 7 15 6 6 13 8 10 6 8 9 6 8 11 11 11 13 10 11 12 11 10 10 10 13 9 10 9 8 10 10 11 10 11 12 11 9 7 6
4 6 4 4 5 3 3 6 4 5 15 12 12 8 14 13 14 10 8 4 7 7 9 11 12 12 12 10 9 6 6 6 7 10 10 8 7 7 6 5 4 6 7 6 9 8 5 7 7
4 7 6 4 2 3 5 4 5 10 22 6 12 16 10 10 17 13 11 7 6 7 8 13 13 13 13 8 9 10 8 7 7 9 11 8 6 7 6 5 5 5 4 6 7 5 6 6 7
8 8 8 9 9 6 9 17 15 24 8 11 16 17 16 13 19 13 11 9 8 8 10 5 13 15 14 13 11 10 10 9 9 8 10 8 8 8 6 6 5 5 5 6 6 6 6 6 7
4 3 6 7 15 11 16 24 6 10 9 15 14 18 13 12 12 16 13 14 10 10 9 10 10 19 18 14 15 11 10 10 9 8 8 10 8 7 7 7 6 5 5 5 6 6 6 6 7
6 10 10 15 18 9 9 10 10 19 12 16 16 14 8 11 12 17 13 13 12 10 11 11 14 22 17 18 16 13 10 10 10 8 10 10 9 8 8 7 6 6 5 6 5 5 5 5 5
6 4 5 3 4 8 7 20 15 9 10 14 12 9 9 11 12 14 13 13 12 11 13 13 10 8 18 18 14 11 10 10 10 8 8 11 10 10 8 7 7 7 6 6 5 6 5 5 6
4 6 8 15 8 8 8 16 4 7 6 10 9 11 9 11 11 12 13 12 12 12 14 12 7 8 18 12 13 13 14 11 10 8 8 11 11 10 9 7 7 8 6 5 6 4 4 5 5
10 16 15 18 4 12 19 24 20 17 17 16 15 15 15 10 13 13 12 10 10 10 13 9 5 11 7 10 8 7 6 8 8 9 9 12 10 12 9 7 8 8 7 5 6 6 4 3 6
13 13 19 24 18 14 18 20 23 20 20 22 19 17 14 12 11 11 12 10 10 12 10 8 7 7 9 10 10 10 12 9 7 8 13 14 12 12 12 8 9 9 10 10 8 6 7 4 5
14 16 20 17 4 10 13 21 21 18 17 21 17 15 14 9 7 12 10 7 7 10 9 8 9 9 9 9 4 7 9 7 9 9 11 13 13 13 12 11 10 11 8 10 10 8 4 4 6
16 12 15 18 17 10 11 12 4 7 6 9 7 9 11 11 11 14 9 7 6 7 7 6 6 10 10 13 10 7 7 6 6 8 8 10 14 14 13 12 10 10 9 9 11 11 11 7 6
8 5 13 19 15 3 7 7 4 8 11 15 15 13 12 10 8 13 11 6 7 8 6 3 2 10 5 11 11 10 11 9 8 9 9 10 13 13 13 13 12 10 8 8 9 9 10 7 8
12 17 21 19 16 11 3 4 4 8 16 23 21 18 15 14 12 13 9 8 8 6 6 4 7 5 5 8 14 14 12 7 4 7 8 9 9 11 11 11 11 10 8 9 10 9 11 9 7
14 11 20 2 4 2 1 7 3 10 17 24 19 20 19 16 14 11 6 5 7 5 4 4 9 5 4 5 4 12 11 6 7 7 7 7 6 6 7 8 8 8 7 8 8 9 11 10 8
21 16 6 6 3 2 5 4 7 18 23 20 25 26 21 14 12 9 6 5 4 3 3 5 10 6 6 4 10 10 7 2 7 7 5 5 4 2 4 3 4 3 4 5 5 4 5 4 3
13 8 5 5 4 6 10 4 2 26 23 19 27 18 10 8 8 7 4 5 4 5 1 16 15 17 18 18 21 16 21 14 11 13 10 8 9 9 12 12 11 11 11 9 9 8 7 8 8
10 12 10 5 5 3 3 8 2 32 35 37 35 15 9 9 10 12 14 14 14 14 12 19 21 17 19 16 17 17 20 21 15 18 14 12 11 11 14 17 15 14 14 14 14 11 11 12 11
10 12 5 4 6 5 5 7 10 29 29 35 32 20 19 19 17 16 15 16 16 17 16 22 21 20 18 18 17 16 19 22 16 17 18 19 15 15 19 18 19 15 14 17 15 12 14 15 11
14 10 4 3 4 3 5 2 10 18 22 26 25 20 19 17 16 16 16 16 17 18 18 20 21 21 20 19 18 20 21 20 17 18 17 16 16 15 21 17 15 15 17 16 16 17 15 17 14
17 12 6 4 7 3 4 2 15 18 21 20 23 21 19 17 17 16 17 17 19 20 18 20 18 22 18 18 20 20 25 19 18 18 17 17 18 17 17 17 18 18 18 17 18 17 15 16 15
Wind_Direction
331 314 127 53 40 251 231 220 208 206 247 229 150 169 202 216 212 220 353 195 150 168 169 165 163 161 161 160 156 153 154 153 153 156 155 156 156 157 155 155 153 152 153 149 151 151 135 127 126
325 314 31 100 169 236 240 204 230 218 241 337 312 284 172 258 254 287 357 186 165 168 172 167 165 162 160 160 159 156 158 157 155 157 153 156 161 161 158 158 158 158 155 156 152 150 142 139 136
324 2 110 159 215 229 223 196 226 236 258 297 312 270 265 236 302 263 248 214 187 172 175 170 166 162 161 160 161 161 160 163 162 153 154 159 162 161 158 159 161 159 157 156 154 152 151 145 140
8 9 22 214 232 291 185 60 67 332 313 222 281 271 286 60 358 334 306 182 178 180 175 163 168 165 164 162 164 166 164 166 160 159 157 165 164 159 155 160 165 162 160 158 157 155 155 148 143
28 57 202 253 262 254 304 261 158 302 313 282 35 283 291 63 356 357 337 188 174 177 177 167 173 169 168 166 166 169 166 165 162 162 156 164 162 157 163 162 171 165 160 163 161 159 156 152 147
29 83 193 244 233 322 286 346 306 283 289 257 279 324 258 177 8 338 326 216 176 179 178 174 178 173 169 171 168 170 169 166 165 165 157 160 168 161 168 169 170 171 161 160 165 167 157 155 159
129 117 233 267 233 271 207 334 54 323 308 344 308 234 294 349 349 334 309 221 191 169 171 182 181 176 169 173 171 172 169 169 167 167 162 156 164 165 170 174 174 172 159 162 167 162 153 163 172
109 119 264 237 235 273 12 16 321 20 298 306 20 224 322 322 333 342 334 219 197 161 168 192 179 178 170 172 170 174 169 168 164 159 161 155 152 164 170 174 175 174 165 166 164 157 153 162 163
117 31 242 249 192 258 0 8 307 309 251 304 278 301 280 315 325 344 14 319 193 185 180 185 186 178 172 174 169 162 157 160 161 151 151 153 158 165 173 173 172 173 179 166 154 152 159 153 143
158 193 225 215 214 250 306 285 277 305 284 275 290 265 296 319 336 329 359 340 329 267 201 193 193 179 168 168 166 165 165 171 177 164 165 163 154 158 164 174 175 180 171 164 154 158 153 148 158
211 222 217 233 235 273 271 279 228 229 264 248 274 280 320 312 313 304 304 264 273 290 294 210 196 180 167 165 163 166 167 168 170 167 162 156 143 149 164 171 187 180 187 173 161 158 163 167 169
286 252 236 257 211 312 255 244 245 232 254 294 277 280 272 287 296 291 287 268 268 262 261 290 205 183 175 163 170 172 170 170 170 174 162 150 150 152 161 176 185 179 175 161 159 160 162 168 178
249 255 268 284 281 261 265 260 259 255 261 251 259 265 261 264 269 272 266 271 242 259 269 264 249 188 182 172 174 171 179 176 166 166 164 154 155 160 160 179 176 184 169 169 161 162 168 169 172
239 243 270 276 273 266 266 262 204 272 228 253 247 259 254 240 258 280 273 280 268 250 257 230 274 202 179 178 179 175 173 173 167 164 164 161 157 160 167 181 178 187 183 172 171 171 173 184 181
289 289 274 264 262 264 255 270 227 252 259 260 260 259 251 245 260 265 269 267 267 249 249 244 241 246 187 183 178 172 177 167 165 162 163 164 161 163 164 178 183 189 189 174 164 162 162 181 195
271 241 299 282 194 241 178 272 270 260 250 254 255 253 244 253 255 269 272 263 262 255 251 260 216 225 202 185 176 168 174 172 171 162 159 163 158 156 161 181 188 186 188 177 178 175 179 189 197
215 273 266 297 240 239 199 286 269 274 235 254 259 262 266 262 264 261 264 258 263 254 250 254 236 219 215 193 166 172 172 175 170 160 160 169 163 167 172 190 183 181 191 184 180 182 183 189 199
290 288 283 281 245 292 273 270 272 254 248 252 259 270 272 245 256 264 270 264 266 258 245 234 232 214 181 169 152 158 156 176 174 173 177 175 174 174 177 188 182 180 193 190 184 181 180 197 200
278 275 277 279 286 282 269 269 267 261 250 256 259 258 256 242 248 262 266 269 281 275 230 213 213 167 183 172 159 162 182 172 181 185 184 186 182 181 182 187 188 184 193 199 188 176 185 188 172
291 280 277 280 248 301 282 273 278 272 255 249 247 255 257 260 248 260 261 271 277 290 229 191 191 172 157 148 175 177 169 164 186 188 189 183 185 185 189 190 191 189 186 188 186 184 164 183 175
316 275 275 284 318 252 276 283 282 303 333 300 287 285 263 241 247 260 253 252 287 294 251 205 182 155 177 165 159 177 171 163 179 192 190 193 191 187 189 193 192 190 192 199 195 195 192 193 193
298 240 302 293 306 273 62 290 10 13 18 6 345 332 333 312 235 250 266 260 259 264 269 242 134 167 199 165 170 160 185 185 194 194 199 196 194 192 193 191 193 184 191 196 200 198 204 189 201
255 300 291 284 273 281 247 227 20 14 347 340 331 320 314 310 304 253 241 250 268 295 267 192 110 88 206 210 208 182 185 190 151 188 203 202 196 192 193 196 196 194 192 204 202 199 209 207 210
319 304 308 330 231 213 296 202 63 10 333 323 319 308 302 296 295 295 255 252 269 291 267 199 119 104 138 139 77 195 171 155 155 179 194 195 192 186 184 196 201 209 197 197 203 215 209 214 222
348 346 337 1 13 231 343 247 68 354 349 328 314 303 290 280 282 290 246 237 321 298 231 184 100 98 100 89 78 55 35 341 185 170 187 192 182 179 154 92 77 62 61 53 49 43 26 358 40
334 346 343 312 326 321 309 353 128 5 330 336 334 297 271 301 300 309 345 34 359 327 122 89 72 59 64 62 65 54 51 36 30 38 64 47 60 55 66 68 54 47 56 56 64 61 56 57 58
338 342 303 253 236 248 346 2 236 345 347 347 340 33 59 47 59 64 64 59 52 43 86 82 72 67 64 71 74 70 69 54 44 53 51 54 49 65 61 64 64 52 56 64 69 58 59 62 53
341 344 0 348 348 341 66 52 341 343 341 333 340 32 52 61 64 61 54 55 57 58 63 81 79 74 72 71 71 69 69 74 61 57 53 57 52 56 63 58 57 56 59 58 63 68 61 64 55
5 12 343 276 305 344 343 49 355 340 338 328 337 22 35 43 49 55 57 59 64 70 66 70 72 74 68 70 72 75 71 67 62 63 57 55 58 52 56 60 65 62 63 63 67 62 61 65 64
33 6 339 76 343 349 317 71 10 354 335 341 350 11 29 36 46 53 59 62 62 66 65 71 71 75 71 76 79 73 71 64 63 63 63 62 64 58 60 63 60 55 59 58 62 62 56 59 58